Location: Newark
(49.3808°N, 3.1844°E)
Time: 05:52:31
(UTC+00:00)

Vanguard 1 Rocket - Pass Details

Date: 18 November 2019
Orbit: 650 x 4226 km, 34.3° (Epoch: 09 December)

Event Time Altitude Azimuth Distance (km) Brightness Sun altitude
Rises 07:46:38 0° 249° (WSW) 3,397 10.0 5.2°
Reaches altitude 10° 07:49:54 10° 226° (SW) 2,796 9.9 5.6°
Maximum altitude 07:53:40 15° 191° (S) 2,839 10.4 6.1°
Drops below altitude 10° 07:58:36 10° 159° (SSE) 3,875 11.9 6.7°
Sets 08:04:42 0° 141° (SE) 5,653 13.6 7.5°
